User: anonymous   Login
Location: Asarope
(8.2500°N, 4.4833°E)
Time: 12:03:24
(UTC+00:00)
Language:

ALOS - Orbit

View from above orbital plane
View from above orbital plane
View from above satellite
View from above satellite

Ground track
Ground track

The orbit data is extracted from the following two-line orbital elements,

1 28931U 06002A   20226.94575743  .00000106  00000-0  29469-4 0  9998
2 28931  97.8495 209.8715 0000747  28.1614 331.9634 14.62730098776109
Epoch (UTC): 13 August 2020 22:41:53
Eccentricity: 0.0000747
inclination: 97.8495°
perigee height: 684 km
apogee height: 685 km
right ascension of ascending node: 209.8715°
argument of perigee: 28.1614°
revolutions per day: 14.62730098
mean anomaly at epoch: 331.9634°
orbit number at epoch: 77610

The dashed part of the orbit path shows where the satellite is in the earth's shadow,  

DLR